Tracking 19817 objects as of 18-Aug-2019
HD Live streaming from Space Station
objects crossing your sky now

COSMOS 2251 DEB

Track COSMOS 2251 DEB now!
10-day predictions


NORAD ID: 34434
Int'l Code: 1993-036SB
Perigee: 760.7 km
Apogee: 1,255.1 km
Inclination: 74.1 °
Period: 105.1 minutes
Semi major axis: 7378 km
RCS: 0.0146 m2 (small)
Launch date: June 16, 1993
Source: Commonwealth of Independent States (former USSR) (CIS)
Launch site: PLESETSK MISSILE AND SPACE COMPLEX (PKMTR)

Note: This is SATELLITE DEBRIS
aabbcc
Your satellite tracking list
Your tracking list is empty




NASA's NSSDC Master Catalog

Two Line Element Set (TLE):
1 34434U 93036SB  19228.53622326 +.00000663 +00000-0 +52870-3 0  9990
2 34434 074.0667 248.0012 0335021 190.8960 327.3733 13.69674356521987
Source of the keplerian elements: AFSPC